Lexington Weather

Lexington, Massachusetts, USA

45°F
4/22/2024 9:31am 
  • Lexington Conditions: Clear
  • Temperature: 44.8°F / 7.1°CWarmer 2.4°F than last hour.
  • Dew Point: 25.3°FDecreased 2.2°Fsince last hour.
  • Relative Humidity: 46%Decreased 9.0% since last hour.
  • Wind: Calm, 10-min avg: Calm, gust: 6 mph
  • Barometer: 29.97 inRising 0.02  inHg/hr Rising Slowly
  • Visibility: 10 miles
  • Rain Today: 0.00 in
  •   

Regional Weather Roundup
for Boston, MA

        
000
ASUS41 KBOX 221310
RWRBOX

REGIONAL WEATHER ROUNDUP
NATIONAL WEATHER SERVICE BOSTON/NORTON MA
900 AM EDT MON APR 22 2024

NOTE:  "FAIR" INDICATES FEW OR NO CLOUDS BELOW 12,000 FEET WITH NO 
SIGNIFICANT WEATHER AND/OR OBSTRUCTIONS TO VISIBILITY.

MAZALL-221400-
EASTERN MASSACHUSETTS
  
CITY           SKY/WX    TMP DP  RH WIND       PRES   REMARKS
BOSTON         MOSUNNY   46  17  31 NW13G23   30.00S                  
BEVERLY        SUNNY     44  22  41 NW9G21    29.99R                  
LAWRENCE       SUNNY     43  16  33 NW16G24   30.01R                  
BEDFORD        SUNNY     44  24  45 NW7       30.00R                  
NORWOOD        SUNNY     47  24  40 N10G23    30.01R                  
MARSHFIELD     SUNNY     46  23  39 NW8G16    30.00R                  
PLYMOUTH       SUNNY     47  21  35 NW16G25   29.99R                  
TAUNTON        SUNNY     49  23  36 NW8G21    30.00R                  
NEW BEDFORD    SUNNY     49  27  42 N8G17     29.99S                  
$$

MAZALL-221400-
CAPE COD AND THE ISLANDS
  
CITY           SKY/WX    TMP DP  RH WIND       PRES   REMARKS
FALMOUTH       SUNNY     46  27  46 NW20G28   29.99R                  
HYANNIS        SUNNY     46  27  47 N12G32    29.96R                  
CHATHAM        SUNNY     48  30  49 VRB7G20   29.98R                  
PROVINCETOWN   SUNNY     46  26  45 NW20      30.00R                  
NANTUCKET      SUNNY     49  32  52 NW18      29.97S                  
MARTHAS VNYRD  SUNNY     49  30  48 N16       29.98S                  
$$
 
MAZALL-221400-
CENTRAL AND WESTERN MASSACHUSETTS
  
CITY           SKY/WX    TMP DP  RH WIND       PRES   REMARKS
WORCESTER      SUNNY     41  19  41 NW16G23   29.98R                  
FITCHBURG      SUNNY     45  16  31 NW12      30.01S                  
ORANGE         SUNNY     42  20  41 N14       30.02R                  
SPRINGFIELD    NOT AVBL                                               
WESTFIELD      MOSUNNY   47  20  34 N17G25    30.02R                  
NORTH ADAMS    SUNNY     41  19  41 W12G21    30.04R                  
PITTSFIELD     SUNNY     40  12  32 N12G22    30.01R                  
$$
 
RIZALL-221400-
RHODE ISLAND
  
CITY           SKY/WX    TMP DP  RH WIND       PRES   REMARKS
PROVIDENCE     MOSUNNY   47  28  47 N10G18    30.02R                  
NEWPORT        SUNNY     46  29  51 N14G23    30.00R                  
BLOCK ISLAND   SUNNY     45  30  55 NW9       30.02S                  
SMITHFIELD     SUNNY     45  28  51 N12G18    30.01R                  
WESTERLY       SUNNY     47  29  49 NW10G18   30.01S                  
$$
 
CTZALL-221400-
CONNECTICUT
  
CITY           SKY/WX    TMP DP  RH WIND       PRES   REMARKS
BRADLEY INTL   MOSUNNY   48  26  42 N12G21    30.03R                  
HARTFORD       SUNNY     48  28  46 N9G16     30.04R                  
PLAINVILLE     FAIR      46  27  47 N8        30.04R                  
BRIDGEPORT     SUNNY     48  28  46 N12G28    30.05S                  
DANBURY        SUNNY     47  26  44 W3        30.05S                  
GROTON         SUNNY     49  29  46 N15G24    30.01S                  
NEW HAVEN      SUNNY     50  30  46 N10G18    30.04R                  
CHESTER        SUNNY     48  27  43 NW12      30.03R                  
MERIDEN        SUNNY     47  27  45 N10       30.04R                  
WILLIMANTIC    SUNNY     45  27  49 N7        30.02R                  
OXFORD         MOSUNNY   43  27  53 NW9       30.04R                  
$$

MEZ002-015-021-024-NHZ003-005-008-011-012-014-VTZ005-008-221400-
NORTHERN NEW ENGLAND
  
CITY           SKY/WX    TMP DP  RH WIND       PRES   REMARKS
PORTLAND ME    SUNNY     41  18  39 NW15G28   29.96R                  
BANGOR ME      MOSUNNY   38  17  42 NW16G31   29.94R WCI  29          
CONCORD NH     SUNNY     41  16  36 NW18G29   30.00R                  
MANCHESTER NH  SUNNY     43  14  31 NW20      29.99R                  
NASHUA NH      SUNNY     43  13  29 NW14      30.01R                  
PORTSMOUTH NH  SUNNY     44  16  32 NW16G23   29.98R                  
JAFFREY NH     SUNNY     41   9  26 N8G23     29.99R                  
KEENE NH       SUNNY     41  12  30 N13G18    30.02R                  
BURLINGTON VT  MOSUNNY   37  20  50 NW14G20   30.08R WCI  28          
MT. WASHINGTON MOSUNNY    3   0  85 NW54G61     N/A  WCI -27          
$$

NYZ052-076-221400-
EASTERN NEW YORK
  
CITY           SKY/WX    TMP DP  RH WIND       PRES   REMARKS
ALBANY         MOSUNNY   45  18  34 NW12      30.08R                  
NEW YORK CITY  MOSUNNY   48  26  42 NW12      30.06S                  
$$
 
ANZALL-221400-
MARINE OBSERVATIONS
  
STATION/POSITION TIME  TEMP    WIND        PRES    VSBY  WAVE
                       AIR SEA DIR/SP/G                  HT/PER
                 (UTC) (F)     (DEG/KT/KT) (MB)    (MI)  (FT/S)
BOSTON BUOY      1250   42     310/ 16/ 19 1015.3R         2/ 3
BUZZARDS BAY     1200   43     320/ 15/ 16 1016.0R
NANTUCKET SOUND  1250   46 47  330/ 16/ 19 1014.7R         1/ 3
MASS BAY-STELLWA 1104   42 45  290/ 14/ 16 1014.6R  1 7/8  1/ 2
ISLE OF SHOALS   1200   41     300/ 18/ 19 1013.9R
S OF BLOCK IS    1226      45                N/A           3/ 4
$$

......................KEY.........................
  SKY/WX - SKY CONDITION/PRESENT WEATHER
  TMP    - TEMPERATURE IN FAHRENHEIT
  DWPT   - DEWPOINT IN FAHRENHEIT
  RH     - RELATIVE HUMIDITY IN PERCENT
  WIND   - DIRECTION AND SPEED IN MPH
  PRES   - MEAN SEA LEVEL PRESSURE IN INCHES OF HG
  WCI    - WIND CHILL INDEX
  VSB    - VISIBILITY IN MILES
  HX     - HEAT INDEX
  TC     - TEMPERATURE IN CELSIUS
  VRB    - VARIABLE WIND DIRECTION
  N/A    - NOT AVAILABLE
  
      

Other recent Regional Weather Roundups

Mon Apr 22, 8:10am EDT

Mon Apr 22, 7:10am EDT

Mon Apr 22, 6:10am EDT

Mon Apr 22, 5:10am EDT

Mon Apr 22, 4:10am EDT

Mon Apr 22, 3:10am EDT

Mon Apr 22, 2:10am EDT

Mon Apr 22, 1:10am EDT

Mon Apr 22, 12:10am EDT

Sun Apr 21, 11:10pm EDT

Sun Apr 21, 10:10pm EDT

Sun Apr 21, 9:10pm EDT

Sun Apr 21, 8:10pm EDT

Sun Apr 21, 7:10pm EDT

Sun Apr 21, 6:10pm EDT

Sun Apr 21, 5:10pm EDT

Sun Apr 21, 4:10pm EDT

Sun Apr 21, 3:10pm EDT

Sun Apr 21, 2:10pm EDT

Sun Apr 21, 1:10pm EDT

Sun Apr 21, 12:10pm EDT

Sun Apr 21, 11:10am EDT

Sun Apr 21, 10:10am EDT

Sun Apr 21, 9:10am EDT

Sun Apr 21, 8:10am EDT

Sun Apr 21, 7:10am EDT

Sun Apr 21, 6:10am EDT

Sun Apr 21, 5:10am EDT

Sun Apr 21, 4:10am EDT

Sun Apr 21, 3:10am EDT

Sun Apr 21, 2:10am EDT

Sun Apr 21, 1:10am EDT

Sun Apr 21, 12:10am EDT

Sat Apr 20, 11:10pm EDT

Sat Apr 20, 10:10pm EDT

Sat Apr 20, 9:10pm EDT

Sat Apr 20, 8:10pm EDT

Sat Apr 20, 7:10pm EDT

Sat Apr 20, 6:10pm EDT

Sat Apr 20, 5:10pm EDT

Sat Apr 20, 4:10pm EDT

Sat Apr 20, 3:10pm EDT

Sat Apr 20, 2:10pm EDT

Sat Apr 20, 1:10pm EDT

Sat Apr 20, 12:10pm EDT

Sat Apr 20, 11:10am EDT

Sat Apr 20, 10:10am EDT

Sat Apr 20, 9:10am EDT

Sat Apr 20, 8:10am EDT

Sat Apr 20, 7:10am EDT

Sat Apr 20, 6:10am EDT

Sat Apr 20, 5:10am EDT

Sat Apr 20, 4:10am EDT

Sat Apr 20, 3:10am EDT

Sat Apr 20, 2:10am EDT

Sat Apr 20, 1:10am EDT

Sat Apr 20, 12:10am EDT

Fri Apr 19, 11:10pm EDT

Fri Apr 19, 10:10pm EDT

Fri Apr 19, 9:10pm EDT

Fri Apr 19, 8:10pm EDT

Fri Apr 19, 7:10pm EDT

Fri Apr 19, 6:10pm EDT

Fri Apr 19, 5:10pm EDT

Fri Apr 19, 4:10pm EDT

Fri Apr 19, 3:10pm EDT

Fri Apr 19, 2:10pm EDT

Fri Apr 19, 1:10pm EDT

Fri Apr 19, 12:10pm EDT

Fri Apr 19, 11:10am EDT

Fri Apr 19, 10:10am EDT

Fri Apr 19, 9:10am EDT

Fri Apr 19, 8:10am EDT

Fri Apr 19, 7:10am EDT

Fri Apr 19, 6:10am EDT

Fri Apr 19, 5:10am EDT

Fri Apr 19, 4:10am EDT

Fri Apr 19, 3:10am EDT

Fri Apr 19, 2:10am EDT

Fri Apr 19, 1:10am EDT

Fri Apr 19, 12:10am EDT

Thu Apr 18, 11:10pm EDT

Thu Apr 18, 10:10pm EDT

Thu Apr 18, 9:10pm EDT

Thu Apr 18, 8:10pm EDT

Thu Apr 18, 7:10pm EDT

Thu Apr 18, 6:10pm EDT

Thu Apr 18, 5:10pm EDT

Thu Apr 18, 4:10pm EDT

Thu Apr 18, 3:10pm EDT

Thu Apr 18, 2:10pm EDT

Thu Apr 18, 1:10pm EDT

Thu Apr 18, 12:10pm EDT

Thu Apr 18, 11:10am EDT

Thu Apr 18, 10:10am EDT

Thu Apr 18, 9:10am EDT

Thu Apr 18, 8:10am EDT

Thu Apr 18, 7:10am EDT

Thu Apr 18, 6:10am EDT

Thu Apr 18, 5:10am EDT

Thu Apr 18, 4:10am EDT

Thu Apr 18, 3:10am EDT

Thu Apr 18, 2:10am EDT

Thu Apr 18, 1:10am EDT

Thu Apr 18, 12:10am EDT

Wed Apr 17, 11:10pm EDT

Wed Apr 17, 10:10pm EDT

Wed Apr 17, 9:10pm EDT

Wed Apr 17, 8:10pm EDT

Wed Apr 17, 7:10pm EDT

Wed Apr 17, 6:10pm EDT

Wed Apr 17, 5:10pm EDT

Wed Apr 17, 4:10pm EDT

Wed Apr 17, 3:10pm EDT

Wed Apr 17, 2:10pm EDT

Wed Apr 17, 1:10pm EDT

Wed Apr 17, 12:10pm EDT

Wed Apr 17, 11:10am EDT

Wed Apr 17, 10:10am EDT

Wed Apr 17, 9:10am EDT

Wed Apr 17, 8:10am EDT

Wed Apr 17, 7:10am EDT

Wed Apr 17, 6:10am EDT

Wed Apr 17, 5:10am EDT

Wed Apr 17, 4:10am EDT

Wed Apr 17, 3:10am EDT

Wed Apr 17, 2:10am EDT

Wed Apr 17, 1:10am EDT

Wed Apr 17, 12:10am EDT

Tue Apr 16, 11:10pm EDT

Tue Apr 16, 10:10pm EDT

Tue Apr 16, 9:10pm EDT

Tue Apr 16, 8:10pm EDT

Tue Apr 16, 7:10pm EDT

Tue Apr 16, 6:10pm EDT

Tue Apr 16, 5:10pm EDT

Tue Apr 16, 4:10pm EDT

Tue Apr 16, 3:10pm EDT

Tue Apr 16, 2:10pm EDT

Tue Apr 16, 1:10pm EDT

Tue Apr 16, 12:10pm EDT

Tue Apr 16, 11:10am EDT

Tue Apr 16, 10:10am EDT

Tue Apr 16, 9:10am EDT

Tue Apr 16, 8:10am EDT

Tue Apr 16, 7:10am EDT

Tue Apr 16, 6:10am EDT

Tue Apr 16, 5:10am EDT

Tue Apr 16, 4:10am EDT

Tue Apr 16, 3:10am EDT

Tue Apr 16, 2:10am EDT

Tue Apr 16, 1:10am EDT

Tue Apr 16, 12:10am EDT

Mon Apr 15, 11:10pm EDT

Mon Apr 15, 10:10pm EDT

Mon Apr 15, 9:10pm EDT

Mon Apr 15, 8:10pm EDT

Mon Apr 15, 7:10pm EDT

Mon Apr 15, 6:10pm EDT

Mon Apr 15, 5:10pm EDT

Mon Apr 15, 4:10pm EDT

Mon Apr 15, 3:10pm EDT

Mon Apr 15, 2:10pm EDT

Mon Apr 15, 1:10pm EDT

Mon Apr 15, 12:10pm EDT

Mon Apr 15, 11:10am EDT

Mon Apr 15, 10:10am EDT